EW4258 Weather Reports


time (UTC)temp
C
wind
direction
speed
KPH
gust
KPH
rain 1hr
cm
rain 24hr
cm
rain mn
cm
humidity
%
barometer
mb
20260502195114 14 45 1.6 3.2 0.00 0.00 0.00 31 1018.2
20260502191113 16 202 0.0 0.0 0.00 0.00 0.00 30 1017.9
20260502190114 16 180 1.6 1.6 0.00 0.00 0.00 29 1017.9
20260502185113 17 67 0.0 3.2 0.00 0.00 0.00 28 1017.9
20260502184112 18 202 0.0 0.0 0.00 0.00 0.00 27 1017.4
20260502183113 18 202 1.6 1.6 0.00 0.00 0.00 26 1017.4
20260502182113 20 135 0.0 1.6 0.00 0.00 0.00 25 1016.8
20260502181112 20 90 0.0 0.0 0.00 0.00 0.00 25 1016.8
20260502180112 21 315 3.2 0.0 0.00 0.00 0.00 25 1017.3
20260502170112 23 315 4.8 8.0 0.00 0.00 0.00 25 1017.4
20260502163112 24 337 4.8 8.0 0.00 0.00 0.00 25 1017.8
20260502162112 24 360 4.8 6.4 0.00 0.00 0.00 25 1017.9
20260502161112 24 337 4.8 8.0 0.00 0.00 0.00 25 1017.9
20260502160111 24 337 4.8 6.4 0.00 0.00 0.00 25 1017.9
20260502152112 24 135 1.6 3.2 0.00 0.00 0.00 25 1018.4
20260502151111 24 315 1.6 3.2 0.00 0.00 0.00 25 1018.4
20260502150111 24 247 1.6 6.4 0.00 0.00 0.00 25 1018.6
20260502140111 25 112 4.8 9.7 0.00 0.00 0.00 25 1019.2
20260502122115 23 202 3.2 1.6 0.00 0.00 0.00 25 1020.3
20260502121115 23 180 1.6 0.0 0.00 0.00 0.00 25 1020.3
20260502120115 23 135 3.2 1.6 0.00 0.00 0.00 26 1020.7
20260502115114 22 360 3.2 4.8 0.00 0.00 0.00 26 1020.7
20260502114114 22 247 3.2 4.8 0.00 0.00 0.00 27 1020.9
20260502113114 22 247 3.2 3.2 0.00 0.00 0.00 27 1020.9
20260502112114 21 247 3.2 3.2 0.00 0.00 0.00 28 1021.3
20260502111114 21 135 1.6 4.8 0.00 0.00 0.00 28 1021.3
20260502110116 20 90 1.6 1.6 0.00 0.00 0.00 33 1021.6
20260502105114 20 225 3.2 6.4 0.00 0.00 0.00 34 1021.6
20260502104114 20 225 1.6 3.2 0.00 0.00 0.00 35 1021.9
20260502103114 20 135 1.6 1.6 0.00 0.00 0.00 36 1021.9
20260502102114 19 202 3.2 4.8 0.00 0.00 0.00 37 1022.1
20260502101114 18 180 1.6 4.8 0.00 0.00 0.00 37 1022.1
20260502100114 18 112 1.6 0.0 0.00 0.00 0.00 37 1022.4
20260502091113 16 45 0.0 3.2 0.00 0.00 0.00 39 1022.9
20260502090113 15 225 3.2 3.2 0.00 0.00 0.00 40 1023.4
20260502071112 11 90 0.0 1.6 0.00 0.00 0.00 43 1024.6
20260502070113 10 180 0.0 0.0 0.00 0.00 0.00 43 1024.7
20260502065112 10 292 0.0 0.0 0.00 0.00 0.00 43 1024.7
20260502064112 10 360 0.0 1.6 0.00 0.00 0.00 45 1025.0
20260502063112 10 315 0.0 3.2 0.00 0.00 0.00 46 1025.0
20260502062112 8 360 0.0 0.0 0.00 0.00 0.00 48 1025.0
20260502061112 7 157 1.6 0.0 0.00 0.00 0.00 50 1025.0
20260502060111 7 67 0.0 1.6 0.00 0.00 0.00 50 1025.1
20260502055111 6 202 0.0 0.0 0.00 0.00 0.00 52 1025.1
20260502052111 3 180 0.0 0.0 0.00 0.00 0.00 54 1025.0
20260502051111 2 157 0.0 0.0 0.00 0.00 0.00 54 1025.0
20260502050111 2 67 0.0 0.0 0.00 0.00 0.00 54 1024.9
20260502045111 2 180 0.0 0.0 0.00 0.00 0.00 54 1024.9
20260502044112 2 135 0.0 0.0 0.00 0.00 0.00 52 1024.8
20260502043111 2 67 0.0 0.0 0.00 0.00 0.00 53 1024.8
20260502042111 2 90 0.0 0.0 0.00 0.00 0.00 53 1025.0
20260502041111 2 135 0.0 0.0 0.00 0.00 0.00 52 1025.0
20260502040112 2 157 0.0 0.0 0.00 0.00 0.00 52 1024.8
20260501220114 8 67 0.0 0.0 0.00 0.00 0.00 40 1024.9
20260501215114 8 157 0.0 0.0 0.00 0.00 0.00 40 1024.9
20260501214114 8 135 0.0 0.0 0.00 0.00 0.00 39 1024.8
20260501212114 9 180 0.0 0.0 0.00 0.00 0.00 38 1024.7
20260501211113 10 112 0.0 0.0 0.00 0.00 0.00 37 1024.7
20260501210113 10 135 0.0 0.0 0.00 0.00 0.00 37 1024.8
20260501205113 10 90 0.0 0.0 0.00 0.00 0.00 36 1024.8
20260501204113 10 157 0.0 0.0 0.00 0.00 0.00 34 1024.4
20260501203113 11 90 0.0 0.0 0.00 0.00 0.00 34 1024.4
20260501202113 11 202 0.0 0.0 0.00 0.00 0.00 33 1024.3
20260501201113 12 360 0.0 0.0 0.00 0.00 0.00 32 1024.3
20260501200113 12 135 0.0 0.0 0.00 0.00 0.00 31 1024.1